Location: Rio Tanui
(39.9167°N, 8.5167°E)
Time: 02:16:45
(UTC+00:00)

COSMOS 2428 - Pass Details

Date: 08 February 2023
Orbit: 843 x 858 km, 70.9° (Epoch: 01 April)

Event Time Altitude Azimuth Distance (km) Brightness Sun altitude
Rises 19:06:52 0° 231° (SW) 3,391 6.5 -26.0°
Reaches altitude 10° 19:09:35 10° 241° (WSW) 2,459 5.8 -26.5°
Maximum altitude 19:14:32 31° 303° (WNW) 1,448 4.4 -27.5°
Drops below altitude 10° 19:19:31 10° 4° (N) 2,470 5.1 -28.4°
Enters shadow 19:20:21 - 8° (N) 2,746 5.3 -28.6°
